Time,TemperatureF,DewpointF,PressureIn,WindDirection,WindDirectionDegrees,WindSpeedMPH,WindSpeedGustMPH,Humidity,HourlyPrecipIn,Conditions,Clouds,dailyrainin,SoftwareType,DateUTC
2013-08-13 00:01:00,72.9,64.9,29.09,South,171,0.0,0.0,76,0.00,,BKN,0.00,VWS V13.01,2013-08-13 04:01:00,
2013-08-13 00:06:00,72.7,64.7,29.09,South,171,0.0,0.0,76,0.00,,BKN,0.00,VWS V13.01,2013-08-13 04:06:00,
2013-08-13 00:11:00,72.7,64.7,29.09,South,171,0.0,0.0,76,0.00,,BKN,0.00,VWS V13.01,2013-08-13 04:11:00,
2013-08-13 00:16:00,72.7,64.7,29.09,South,171,0.0,0.0,76,0.00,,BKN,0.00,VWS V13.01,2013-08-13 04:16:00,
2013-08-13 00:21:00,72.7,64.7,29.09,South,171,0.0,0.0,76,0.00,,BKN,0.00,VWS V13.01,2013-08-13 04:21:00,
2013-08-13 00:26:00,72.7,64.7,29.06,South,171,0.0,0.0,76,0.00,,BKN,0.00,VWS V13.01,2013-08-13 04:26:00,
2013-08-13 00:31:00,72.7,65.1,29.06,South,171,0.0,0.0,77,0.00,,BKN,0.00,VWS V13.01,2013-08-13 04:31:00,
2013-08-13 00:36:00,72.5,64.9,29.06,South,176,0.0,2.7,77,0.00,,BKN,0.00,VWS V13.01,2013-08-13 04:36:00,
2013-08-13 00:41:00,72.5,64.9,29.06,South,175,0.0,0.0,77,0.00,,BKN,0.00,VWS V13.01,2013-08-13 04:41:00,
2013-08-13 00:46:00,72.3,65.1,29.06,WSW,249,0.0,0.0,78,0.00,,BKN,0.00,VWS V13.01,2013-08-13 04:46:00,
2013-08-13 00:51:00,72.1,64.9,29.06,WSW,252,0.0,0.0,78,0.00,,BKN,0.00,VWS V13.01,2013-08-13 04:51:00,
2013-08-13 00:56:00,72.1,64.9,29.06,WSW,252,0.0,0.0,78,0.00,,BKN,0.00,VWS V13.01,2013-08-13 04:56:00,
2013-08-13 01:01:00,72.0,64.7,29.06,WSW,252,0.0,0.0,78,0.00,,BKN,0.00,VWS V13.01,2013-08-13 05:01:00,
2013-08-13 01:06:00,72.0,64.7,29.06,WSW,252,0.0,0.0,78,0.00,,BKN,0.00,VWS V13.01,2013-08-13 05:06:00,
2013-08-13 01:11:00,72.0,64.7,29.06,WSW,252,0.0,0.0,78,0.00,,BKN,0.00,VWS V13.01,2013-08-13 05:11:00,
2013-08-13 01:16:00,71.8,64.6,29.06,WSW,254,0.0,3.1,78,0.00,,BKN,0.00,VWS V13.01,2013-08-13 05:16:00,
2013-08-13 01:21:00,71.8,64.6,29.06,WSW,254,0.0,0.0,78,0.00,,BKN,0.00,VWS V13.01,2013-08-13 05:21:00,
2013-08-13 01:26:00,71.8,64.6,29.06,West,259,0.0,0.0,78,0.00,,BKN,0.00,VWS V13.01,2013-08-13 05:26:00,
2013-08-13 01:31:00,71.6,64.4,29.06,West,259,0.0,0.0,78,0.00,,BKN,0.00,VWS V13.01,2013-08-13 05:31:00,
2013-08-13 01:36:00,71.4,64.6,29.06,West,273,3.1,3.1,79,0.00,,BKN,0.00,VWS V13.01,2013-08-13 05:36:00,
2013-08-13 01:41:00,71.4,64.6,29.03,SW,219,2.7,2.7,79,0.00,,BKN,0.00,VWS V13.01,2013-08-13 05:41:00,
2013-08-13 01:46:00,71.4,64.6,29.03,SSW,205,2.7,2.7,79,0.00,,BKN,0.00,VWS V13.01,2013-08-13 05:46:00,
2013-08-13 01:51:00,71.4,64.6,29.03,WSW,243,0.0,0.0,79,0.00,,BKN,0.00,VWS V13.01,2013-08-13 05:51:00,
2013-08-13 01:56:00,71.4,64.6,29.03,WNW,289,0.0,2.7,79,0.00,,BKN,0.00,VWS V13.01,2013-08-13 05:56:00,
2013-08-13 02:01:00,71.4,64.6,29.03,WNW,289,0.0,2.7,79,0.00,,BKN,0.00,VWS V13.01,2013-08-13 06:01:00,
2013-08-13 02:06:00,71.2,64.4,29.03,WNW,289,0.0,0.0,79,0.00,,BKN,0.00,VWS V13.01,2013-08-13 06:06:00,
2013-08-13 02:11:00,71.2,64.4,29.03,WNW,283,0.0,0.0,79,0.00,,BKN,0.00,VWS V13.01,2013-08-13 06:11:00,
2013-08-13 02:15:00,71.2,64.4,29.03,WNW,283,0.0,0.0,79,0.00,,BKN,0.00,VWS V13.01,2013-08-13 06:15:00,
2013-08-13 02:20:00,71.1,64.2,29.03,WNW,283,0.0,0.0,79,0.00,,BKN,0.00,VWS V13.01,2013-08-13 06:20:00,
2013-08-13 02:25:00,71.1,64.2,29.03,WNW,283,0.0,0.0,79,0.00,,BKN,0.00,VWS V13.01,2013-08-13 06:25:00,
2013-08-13 02:30:00,70.9,64.1,29.03,WNW,283,0.0,0.0,79,0.00,,BKN,0.00,VWS V13.01,2013-08-13 06:30:00,
2013-08-13 02:35:00,70.7,63.9,29.03,WNW,283,0.0,0.0,79,0.00,,BKN,0.00,VWS V13.01,2013-08-13 06:35:00,
2013-08-13 02:40:00,70.7,64.2,29.03,WNW,283,0.0,0.0,80,0.00,,BKN,0.00,VWS V13.01,2013-08-13 06:40:00,
2013-08-13 02:45:00,70.7,64.2,29.03,WNW,283,0.0,0.0,80,0.00,,BKN,0.00,VWS V13.01,2013-08-13 06:45:00,
2013-08-13 02:50:00,70.5,64.1,29.03,WNW,283,0.0,2.7,80,0.00,,BKN,0.00,VWS V13.01,2013-08-13 06:50:00,
2013-08-13 02:55:00,70.5,64.4,29.00,WNW,283,0.0,0.0,81,0.00,,BKN,0.00,VWS V13.01,2013-08-13 06:55:00,
2013-08-13 03:00:00,70.5,64.4,29.00,SW,235,0.0,3.6,81,0.00,,BKN,0.00,VWS V13.01,2013-08-13 07:00:00,
2013-08-13 03:05:00,70.5,64.4,29.00,SW,228,0.0,0.0,81,0.00,,BKN,0.00,VWS V13.01,2013-08-13 07:05:00,
2013-08-13 03:10:00,70.5,64.4,29.00,SW,228,2.7,2.7,81,0.00,,BKN,0.00,VWS V13.01,2013-08-13 07:10:00,
2013-08-13 03:15:00,70.3,64.6,29.00,SW,228,0.0,0.0,82,0.00,,BKN,0.00,VWS V13.01,2013-08-13 07:15:00,
2013-08-13 03:20:00,70.3,64.6,29.00,SW,228,2.7,3.1,82,0.00,,BKN,0.00,VWS V13.01,2013-08-13 07:20:00,
2013-08-13 03:25:00,70.3,64.9,29.00,SW,228,2.7,4.0,83,0.00,,BKN,0.00,VWS V13.01,2013-08-13 07:25:00,
2013-08-13 03:30:00,70.3,64.9,29.00,SW,228,3.6,3.6,83,0.00,,BKN,0.00,VWS V13.01,2013-08-13 07:30:00,
2013-08-13 03:35:00,70.2,64.8,29.00,SW,228,3.1,3.6,83,0.00,,BKN,0.00,VWS V13.01,2013-08-13 07:35:00,
2013-08-13 03:40:00,70.2,64.8,29.00,West,266,3.1,3.1,83,0.00,,BKN,0.00,VWS V13.01,2013-08-13 07:40:00,
2013-08-13 03:45:00,70.2,64.8,29.00,West,266,3.6,3.6,83,0.00,,BKN,0.00,VWS V13.01,2013-08-13 07:45:00,
2013-08-13 03:50:00,70.2,64.8,29.00,West,266,2.7,3.1,83,0.00,,BKN,0.00,VWS V13.01,2013-08-13 07:50:00,
2013-08-13 03:55:00,70.2,64.8,29.00,West,266,2.7,3.6,83,0.00,,BKN,0.00,VWS V13.01,2013-08-13 07:55:00,
2013-08-13 04:00:00,70.2,64.8,29.00,West,266,0.0,0.0,83,0.00,,BKN,0.00,VWS V13.01,2013-08-13 08:00:00,
2013-08-13 04:05:00,70.2,64.8,29.00,West,266,0.0,0.0,83,0.00,,BKN,0.00,VWS V13.01,2013-08-13 08:05:00,
2013-08-13 04:10:00,70.2,64.8,28.97,West,266,0.0,0.0,83,0.00,,BKN,0.00,VWS V13.01,2013-08-13 08:10:00,
2013-08-13 04:15:00,70.2,64.8,28.97,West,266,0.0,0.0,83,0.00,,BKN,0.00,VWS V13.01,2013-08-13 08:15:00,
2013-08-13 04:20:00,70.2,64.8,28.97,West,266,0.0,0.0,83,0.00,,BKN,0.00,VWS V13.01,2013-08-13 08:20:00,
2013-08-13 04:25:00,70.2,64.8,28.97,West,266,0.0,0.0,83,0.00,,BKN,0.00,VWS V13.01,2013-08-13 08:25:00,
2013-08-13 04:30:00,70.2,64.8,28.97,West,266,0.0,0.0,83,0.00,,BKN,0.00,VWS V13.01,2013-08-13 08:30:00,
2013-08-13 04:35:00,70.2,64.8,28.97,West,266,3.1,3.1,83,0.00,,BKN,0.00,VWS V13.01,2013-08-13 08:35:00,
2013-08-13 04:40:00,70.2,65.1,28.97,West,262,0.0,3.1,84,0.00,,BKN,0.00,VWS V13.01,2013-08-13 08:40:00,
2013-08-13 04:45:00,70.3,65.3,28.97,SW,215,0.0,3.1,84,0.00,,BKN,0.00,VWS V13.01,2013-08-13 08:45:00,
2013-08-13 04:50:00,70.3,65.3,28.97,SW,215,0.0,0.0,84,0.00,,BKN,0.00,VWS V13.01,2013-08-13 08:50:00,
2013-08-13 04:55:00,70.3,65.3,29.00,West,274,3.1,4.5,84,0.00,,BKN,0.00,VWS V13.01,2013-08-13 08:55:00,
2013-08-13 05:00:00,70.2,65.1,29.00,WSW,251,4.0,4.9,84,0.00,,BKN,0.00,VWS V13.01,2013-08-13 09:00:00,
2013-08-13 05:05:00,70.0,64.9,29.00,South,172,3.1,5.8,84,0.00,,BKN,0.00,VWS V13.01,2013-08-13 09:05:00,
2013-08-13 05:10:00,70.0,65.3,29.00,SW,236,3.1,4.0,85,0.00,,BKN,0.00,VWS V13.01,2013-08-13 09:10:00,
2013-08-13 05:15:00,69.8,65.8,29.00,WSW,255,2.7,3.1,87,0.00,,BKN,0.00,VWS V13.01,2013-08-13 09:15:00,
2013-08-13 05:20:00,69.8,65.8,29.00,SW,227,0.0,3.1,87,0.00,,BKN,0.00,VWS V13.01,2013-08-13 09:20:00,
2013-08-13 05:25:00,69.8,65.8,28.97,NW,318,3.1,3.6,87,0.00,,BKN,0.00,VWS V13.01,2013-08-13 09:25:00,
2013-08-13 05:30:00,69.6,65.6,28.97,NW,318,0.0,0.0,87,0.00,,BKN,0.00,VWS V13.01,2013-08-13 09:30:00,
2013-08-13 05:35:00,69.6,65.6,28.97,NW,318,0.0,0.0,87,0.00,,BKN,0.00,VWS V13.01,2013-08-13 09:35:00,
2013-08-13 05:40:00,69.6,65.6,28.97,NW,318,4.0,4.0,87,0.00,,BKN,0.00,VWS V13.01,2013-08-13 09:40:00,
2013-08-13 05:45:00,69.6,65.6,28.97,NW,317,2.7,3.1,87,0.00,,BKN,0.00,VWS V13.01,2013-08-13 09:45:00,
2013-08-13 05:50:00,69.4,65.4,28.97,NW,317,0.0,0.0,87,0.00,,BKN,0.00,VWS V13.01,2013-08-13 09:50:00,
2013-08-13 05:55:00,69.4,65.4,28.97,NW,317,0.0,0.0,87,0.00,,BKN,0.00,VWS V13.01,2013-08-13 09:55:00,
2013-08-13 06:00:00,69.4,65.4,28.97,NW,317,0.0,0.0,87,0.00,,BKN,0.00,VWS V13.01,2013-08-13 10:00:00,
2013-08-13 06:05:00,69.4,65.7,28.97,NW,315,4.0,4.0,88,0.00,,BKN,0.00,VWS V13.01,2013-08-13 10:05:00,
2013-08-13 06:10:00,69.4,65.7,28.97,WSW,239,3.1,3.1,88,0.00,,BKN,0.00,VWS V13.01,2013-08-13 10:10:00,
2013-08-13 06:15:00,69.4,66.1,28.97,West,268,0.0,2.7,89,0.00,,BKN,0.00,VWS V13.01,2013-08-13 10:15:00,
2013-08-13 06:20:00,69.4,66.1,28.97,West,269,0.0,0.0,89,0.00,,BKN,0.00,VWS V13.01,2013-08-13 10:20:00,
2013-08-13 06:25:00,69.4,66.1,28.97,West,269,3.1,3.6,89,0.00,,BKN,0.00,VWS V13.01,2013-08-13 10:25:00,
2013-08-13 06:30:00,69.3,65.9,28.97,NW,305,4.5,4.9,89,0.00,,BKN,0.00,VWS V13.01,2013-08-13 10:30:00,
2013-08-13 06:35:00,69.4,66.1,28.97,NW,317,5.4,6.9,89,0.00,,BKN,0.00,VWS V13.01,2013-08-13 10:35:00,
2013-08-13 06:40:00,69.3,65.9,28.97,North,0,4.9,4.9,89,0.00,,BKN,0.00,VWS V13.01,2013-08-13 10:40:00,
2013-08-13 06:45:00,68.7,65.3,28.97,West,281,4.9,7.4,89,0.00,,BKN,0.00,VWS V13.01,2013-08-13 10:45:00,
2013-08-13 06:50:00,68.2,64.8,28.97,NW,324,0.0,0.0,89,0.00,,BKN,0.00,VWS V13.01,2013-08-13 10:50:00,
2013-08-13 06:55:00,67.8,64.5,29.00,NW,325,0.0,0.0,89,0.00,,BKN,0.00,VWS V13.01,2013-08-13 10:55:00,
2013-08-13 07:00:00,67.3,63.9,29.00,NW,310,3.1,3.6,89,0.00,,BKN,0.00,VWS V13.01,2013-08-13 11:00:00,
2013-08-13 07:05:00,67.1,63.8,29.00,NW,310,0.0,0.0,89,0.00,,BKN,0.00,VWS V13.01,2013-08-13 11:05:00,
2013-08-13 07:10:00,67.1,63.8,29.00,NW,310,0.0,0.0,89,0.00,,BKN,0.00,VWS V13.01,2013-08-13 11:10:00,
2013-08-13 07:15:00,67.1,64.1,29.00,NW,310,3.6,3.6,90,0.00,,BKN,0.00,VWS V13.01,2013-08-13 11:15:00,
2013-08-13 07:20:00,67.3,64.2,29.00,NW,310,0.0,0.0,90,0.00,,BKN,0.00,VWS V13.01,2013-08-13 11:20:00,
2013-08-13 07:25:00,67.5,64.4,29.00,NW,310,0.0,0.0,90,0.00,,BKN,0.00,VWS V13.01,2013-08-13 11:25:00,
2013-08-13 07:30:00,67.5,64.4,29.00,SW,214,4.0,4.0,90,0.00,,BKN,0.00,VWS V13.01,2013-08-13 11:30:00,
2013-08-13 07:35:00,67.3,64.2,29.00,SSW,209,0.0,2.7,90,0.00,,BKN,0.00,VWS V13.01,2013-08-13 11:35:00,
2013-08-13 07:40:00,67.1,64.4,29.00,WNW,286,0.0,2.7,91,0.00,,BKN,0.00,VWS V13.01,2013-08-13 11:40:00,
2013-08-13 07:45:00,66.9,63.9,29.00,WNW,286,0.0,0.0,90,0.00,,BKN,0.00,VWS V13.01,2013-08-13 11:45:00,
2013-08-13 07:50:00,66.9,63.9,29.00,WNW,286,0.0,0.0,90,0.00,,BKN,0.00,VWS V13.01,2013-08-13 11:50:00,
2013-08-13 07:55:00,66.9,63.9,29.00,WNW,286,0.0,0.0,90,0.00,,BKN,0.00,VWS V13.01,2013-08-13 11:55:00,
2013-08-13 08:00:00,66.9,63.9,29.00,WNW,286,0.0,0.0,90,0.00,,BKN,0.00,VWS V13.01,2013-08-13 12:00:00,
2013-08-13 08:05:00,67.1,64.1,29.00,SSW,192,0.0,0.0,90,0.00,,BKN,0.00,VWS V13.01,2013-08-13 12:05:00,
2013-08-13 08:10:00,67.1,64.1,29.00,SSW,192,0.0,0.0,90,0.00,,BKN,0.00,VWS V13.01,2013-08-13 12:10:00,
2013-08-13 08:15:00,67.1,64.1,29.00,SSW,192,0.0,0.0,90,0.00,,BKN,0.00,VWS V13.01,2013-08-13 12:15:00,
2013-08-13 08:20:00,67.3,64.2,29.00,SSW,192,0.0,0.0,90,0.00,,BKN,0.00,VWS V13.01,2013-08-13 12:20:00,
2013-08-13 08:25:00,67.3,64.2,29.00,SSW,192,0.0,0.0,90,0.00,,BKN,0.00,VWS V13.01,2013-08-13 12:25:00,
2013-08-13 08:30:00,67.5,64.4,29.00,SSW,192,0.0,0.0,90,0.00,,BKN,0.00,VWS V13.01,2013-08-13 12:30:00,
2013-08-13 08:35:00,67.6,64.6,29.00,SSW,192,0.0,0.0,90,0.00,,BKN,0.00,VWS V13.01,2013-08-13 12:35:00,
2013-08-13 08:40:00,67.6,64.6,29.00,SSW,192,3.1,3.1,90,0.00,,BKN,0.00,VWS V13.01,2013-08-13 12:40:00,
2013-08-13 08:45:00,67.8,64.8,29.00,SE,133,0.0,0.0,90,0.00,,BKN,0.00,VWS V13.01,2013-08-13 12:45:00,
2013-08-13 08:50:00,67.8,65.1,29.00,SE,133,0.0,0.0,91,0.00,,BKN,0.00,VWS V13.01,2013-08-13 12:50:00,
2013-08-13 08:55:00,68.0,65.3,29.00,WSW,251,0.0,0.0,91,0.00,,BKN,0.00,VWS V13.01,2013-08-13 12:55:00,
2013-08-13 09:00:00,68.2,65.5,29.00,SW,236,0.0,0.0,91,0.00,,BKN,0.00,VWS V13.01,2013-08-13 13:00:00,
2013-08-13 09:05:00,68.4,65.6,29.00,West,268,0.0,2.7,91,0.00,,BKN,0.00,VWS V13.01,2013-08-13 13:05:00,
2013-08-13 09:10:00,68.4,65.6,29.00,West,268,0.0,0.0,91,0.00,,BKN,0.00,VWS V13.01,2013-08-13 13:10:00,
2013-08-13 09:15:00,68.4,65.6,29.00,West,268,0.0,0.0,91,0.00,,BKN,0.00,VWS V13.01,2013-08-13 13:15:00,
2013-08-13 09:20:00,68.5,66.1,29.00,West,268,0.0,2.7,92,0.00,,BKN,0.00,VWS V13.01,2013-08-13 13:20:00,
2013-08-13 09:25:00,68.7,66.3,29.00,West,266,2.7,3.1,92,0.00,,BKN,0.00,VWS V13.01,2013-08-13 13:25:00,
2013-08-13 09:30:00,68.7,66.3,29.00,West,266,2.7,3.1,92,0.00,,BKN,0.00,VWS V13.01,2013-08-13 13:30:00,
2013-08-13 09:35:00,68.7,66.3,29.00,SW,229,2.7,3.1,92,0.00,,BKN,0.00,VWS V13.01,2013-08-13 13:35:00,
2013-08-13 09:40:00,68.7,66.3,29.00,West,262,3.6,3.6,92,0.00,,BKN,0.00,VWS V13.01,2013-08-13 13:40:00,
2013-08-13 09:45:00,68.9,66.5,29.00,West,262,3.6,3.6,92,0.00,,BKN,0.00,VWS V13.01,2013-08-13 13:45:00,
2013-08-13 09:50:00,68.9,66.5,29.00,West,262,3.6,3.6,92,0.00,,BKN,0.00,VWS V13.01,2013-08-13 13:50:00,
2013-08-13 09:55:00,68.9,66.5,29.00,West,262,3.6,3.6,92,0.00,,BKN,0.00,VWS V13.01,2013-08-13 13:55:00,
2013-08-13 10:00:00,69.3,66.8,29.00,West,262,3.6,3.6,92,0.00,,BKN,0.00,VWS V13.01,2013-08-13 14:00:00,
2013-08-13 10:05:00,69.3,66.8,29.00,West,262,3.6,3.6,92,0.00,,BKN,0.00,VWS V13.01,2013-08-13 14:05:00,
2013-08-13 10:10:00,69.4,67.0,29.00,West,262,3.6,3.6,92,0.00,,BKN,0.00,VWS V13.01,2013-08-13 14:10:00,
2013-08-13 10:15:00,69.6,67.2,29.00,West,262,3.6,3.6,92,0.00,,BKN,0.00,VWS V13.01,2013-08-13 14:15:00,
2013-08-13 10:20:00,69.8,67.4,29.00,West,262,3.6,3.6,92,0.00,,BKN,0.00,VWS V13.01,2013-08-13 14:20:00,
2013-08-13 10:25:00,69.8,67.1,29.00,West,262,3.6,3.6,91,0.00,,BKN,0.00,VWS V13.01,2013-08-13 14:25:00,
2013-08-13 10:30:00,70.2,67.4,29.00,West,262,3.6,3.6,91,0.00,,BKN,0.00,VWS V13.01,2013-08-13 14:30:00,
2013-08-13 10:35:00,70.2,67.1,29.00,West,262,3.6,3.6,90,0.00,,BKN,0.00,VWS V13.01,2013-08-13 14:35:00,
2013-08-13 10:40:00,70.2,67.1,29.00,West,262,3.6,3.6,90,0.00,,BKN,0.00,VWS V13.01,2013-08-13 14:40:00,
2013-08-13 10:45:00,70.2,66.8,29.00,West,262,3.6,3.6,89,0.00,,BKN,0.00,VWS V13.01,2013-08-13 14:45:00,
2013-08-13 10:51:00,70.2,66.4,29.00,West,262,3.6,3.6,88,0.00,,BKN,0.00,VWS V13.01,2013-08-13 14:51:00,
2013-08-13 10:56:00,70.2,66.1,29.00,West,262,3.6,3.6,87,0.00,,BKN,0.00,VWS V13.01,2013-08-13 14:56:00,
2013-08-13 11:01:00,70.2,66.1,29.00,West,262,3.6,3.6,87,0.00,,BKN,0.00,VWS V13.01,2013-08-13 15:01:00,
2013-08-13 11:06:00,70.2,65.8,29.00,West,262,3.6,3.6,86,0.00,,BKN,0.00,VWS V13.01,2013-08-13 15:06:00,
2013-08-13 11:11:00,72.1,66.3,29.00,West,262,3.6,3.6,82,0.00,,BKN,0.00,VWS V13.01,2013-08-13 15:11:00,
2013-08-13 11:16:00,72.1,66.0,29.00,West,262,3.6,3.6,81,0.00,,BKN,0.00,VWS V13.01,2013-08-13 15:16:00,
2013-08-13 11:21:00,72.1,64.9,29.00,West,262,3.6,3.6,78,0.00,,BKN,0.00,VWS V13.01,2013-08-13 15:21:00,
2013-08-13 11:26:00,72.1,64.2,29.00,West,262,3.6,3.6,76,0.00,,BKN,0.00,VWS V13.01,2013-08-13 15:26:00,
2013-08-13 11:31:00,72.1,64.2,29.00,West,262,3.6,3.6,76,0.00,,BKN,0.00,VWS V13.01,2013-08-13 15:31:00,
2013-08-13 11:36:00,72.1,64.2,29.00,West,262,3.6,3.6,76,0.00,,BKN,0.00,VWS V13.01,2013-08-13 15:36:00,
2013-08-13 11:41:00,72.1,63.0,29.00,West,262,3.6,3.6,73,0.00,,BKN,0.00,VWS V13.01,2013-08-13 15:41:00,
2013-08-13 11:46:00,72.1,62.2,29.00,West,262,3.6,3.6,71,0.00,,BKN,0.00,VWS V13.01,2013-08-13 15:46:00,
2013-08-13 11:51:00,72.1,62.6,29.00,West,262,3.6,3.6,72,0.00,,BKN,0.00,VWS V13.01,2013-08-13 15:51:00,
2013-08-13 11:56:00,72.1,60.6,29.00,West,262,3.6,3.6,67,0.00,,BKN,0.00,VWS V13.01,2013-08-13 15:56:00,
2013-08-13 12:00:00,74.8,62.3,29.00,West,262,3.6,3.6,65,0.00,,BKN,0.00,VWS V13.01,2013-08-13 16:00:00,
2013-08-13 12:05:00,74.8,62.7,29.00,West,262,3.6,3.6,66,0.00,,BKN,0.00,VWS V13.01,2013-08-13 16:05:00,
2013-08-13 12:10:00,74.8,60.5,29.00,West,262,3.6,3.6,61,0.00,,BKN,0.00,VWS V13.01,2013-08-13 16:10:00,
2013-08-13 12:15:00,74.8,59.6,29.00,West,262,3.6,3.6,59,0.00,,BKN,0.00,VWS V13.01,2013-08-13 16:15:00,
2013-08-13 12:20:00,74.8,58.6,29.00,West,262,3.6,3.6,57,0.00,,BKN,0.00,VWS V13.01,2013-08-13 16:20:00,
2013-08-13 12:25:00,74.8,59.6,28.97,West,262,3.6,3.6,59,0.00,,BKN,0.00,VWS V13.01,2013-08-13 16:25:00,
2013-08-13 12:30:00,74.8,59.6,28.97,West,262,3.6,3.6,59,0.00,,BKN,0.00,VWS V13.01,2013-08-13 16:30:00,
2013-08-13 12:35:00,74.8,57.1,28.97,West,262,3.6,3.6,54,0.00,,BKN,0.00,VWS V13.01,2013-08-13 16:35:00,
2013-08-13 12:40:00,74.8,58.1,28.97,West,262,3.6,3.6,56,0.00,,BKN,0.00,VWS V13.01,2013-08-13 16:40:00,
2013-08-13 12:45:00,74.8,57.6,28.97,West,262,3.6,3.6,55,0.00,,BKN,0.00,VWS V13.01,2013-08-13 16:45:00,
2013-08-13 12:50:00,74.8,56.0,28.97,West,262,3.6,3.6,52,0.00,,BKN,0.00,VWS V13.01,2013-08-13 16:50:00,
2013-08-13 12:55:00,79.7,60.5,28.97,West,262,3.6,3.6,52,0.00,,BKN,0.00,VWS V13.01,2013-08-13 16:55:00,
2013-08-13 13:00:00,79.7,60.0,28.97,West,262,3.6,3.6,51,0.00,,BKN,0.00,VWS V13.01,2013-08-13 17:00:00,
2013-08-13 13:05:00,79.7,60.5,28.97,West,262,3.6,3.6,52,0.00,,BKN,0.00,VWS V13.01,2013-08-13 17:05:00,
2013-08-13 13:12:00,79.7,60.0,28.97,West,262,3.6,3.6,51,0.00,,BKN,0.00,VWS V13.01,2013-08-13 17:12:00,
2013-08-13 13:17:00,79.7,60.0,28.97,West,262,3.6,3.6,51,0.00,,BKN,0.00,VWS V13.01,2013-08-13 17:17:00,
2013-08-13 13:22:00,79.7,60.0,28.97,West,262,3.6,3.6,51,0.00,,BKN,0.00,VWS V13.01,2013-08-13 17:22:00,
2013-08-13 13:27:00,79.7,58.9,28.97,West,262,3.6,3.6,49,0.00,,BKN,0.00,VWS V13.01,2013-08-13 17:27:00,
2013-08-13 13:32:00,79.7,58.9,28.97,West,262,3.6,3.6,49,0.00,,BKN,0.00,VWS V13.01,2013-08-13 17:32:00,
2013-08-13 13:37:00,80.8,59.3,28.97,West,262,3.6,3.6,48,0.00,,BKN,0.00,VWS V13.01,2013-08-13 17:37:00,
2013-08-13 13:42:00,81.1,55.9,28.97,West,262,3.6,3.6,42,0.00,,BKN,0.00,VWS V13.01,2013-08-13 17:42:00,
2013-08-13 13:47:00,81.1,55.2,28.97,West,262,3.6,3.6,41,0.00,,BKN,0.00,VWS V13.01,2013-08-13 17:47:00,
2013-08-13 13:52:00,81.1,55.9,28.97,West,262,3.6,3.6,42,0.00,,BKN,0.00,VWS V13.01,2013-08-13 17:52:00,
2013-08-13 13:57:00,81.1,55.2,28.97,West,262,3.6,3.6,41,0.00,,BKN,0.00,VWS V13.01,2013-08-13 17:57:00,
2013-08-13 14:02:00,81.1,54.5,28.97,West,262,3.6,3.6,40,0.00,,BKN,0.00,VWS V13.01,2013-08-13 18:02:00,
2013-08-13 14:07:00,81.1,54.5,28.97,West,262,3.6,3.6,40,0.00,,BKN,0.00,VWS V13.01,2013-08-13 18:07:00,
2013-08-13 14:12:00,81.7,55.7,28.97,West,262,3.6,3.6,41,0.00,,BKN,0.00,VWS V13.01,2013-08-13 18:12:00,
2013-08-13 14:17:00,81.5,55.5,28.97,West,262,3.6,3.6,41,0.00,,BKN,0.00,VWS V13.01,2013-08-13 18:17:00,
2013-08-13 14:22:00,81.7,55.7,28.97,West,262,3.6,3.6,41,0.00,,BKN,0.00,VWS V13.01,2013-08-13 18:22:00,
2013-08-13 14:27:00,81.9,55.2,28.97,West,262,3.6,3.6,40,0.00,,BKN,0.00,VWS V13.01,2013-08-13 18:27:00,
2013-08-13 14:32:00,82.2,55.5,28.97,West,262,3.6,3.6,40,0.00,,BKN,0.00,VWS V13.01,2013-08-13 18:32:00,
2013-08-13 14:37:00,82.2,55.5,28.97,West,262,3.6,3.6,40,0.00,,BKN,0.00,VWS V13.01,2013-08-13 18:37:00,
2013-08-13 14:42:00,82.4,55.7,28.97,West,262,3.6,3.6,40,0.00,,BKN,0.00,VWS V13.01,2013-08-13 18:42:00,
2013-08-13 14:47:00,82.6,55.8,28.97,West,262,3.6,3.6,40,0.00,,BKN,0.00,VWS V13.01,2013-08-13 18:47:00,
2013-08-13 14:52:00,82.4,55.7,28.97,West,262,3.6,3.6,40,0.00,,BKN,0.00,VWS V13.01,2013-08-13 18:52:00,
2013-08-13 14:57:00,82.8,56.0,28.94,West,262,3.6,3.6,40,0.00,,BKN,0.00,VWS V13.01,2013-08-13 18:57:00,
2013-08-13 15:02:00,82.9,56.2,28.94,West,262,3.6,3.6,40,0.00,,BKN,0.00,VWS V13.01,2013-08-13 19:02:00,
2013-08-13 15:07:00,82.8,56.0,28.94,West,262,3.6,3.6,40,0.00,,BKN,0.00,VWS V13.01,2013-08-13 19:07:00,
2013-08-13 15:12:00,82.9,56.2,28.94,West,262,3.6,3.6,40,0.00,,BKN,0.00,VWS V13.01,2013-08-13 19:12:00,
2013-08-13 15:17:00,82.9,56.2,28.94,West,262,3.6,3.6,40,0.00,,BKN,0.00,VWS V13.01,2013-08-13 19:17:00,
2013-08-13 15:22:00,82.8,56.0,28.94,West,262,3.6,3.6,40,0.00,,BKN,0.00,VWS V13.01,2013-08-13 19:22:00,
2013-08-13 15:27:00,83.1,56.3,28.94,West,262,3.6,3.6,40,0.00,,BKN,0.00,VWS V13.01,2013-08-13 19:27:00,
2013-08-13 15:32:00,83.1,56.3,28.94,West,262,3.6,3.6,40,0.00,,BKN,0.00,VWS V13.01,2013-08-13 19:32:00,
2013-08-13 15:37:00,83.3,56.5,28.94,West,262,3.6,3.6,40,0.00,,BKN,0.00,VWS V13.01,2013-08-13 19:37:00,
2013-08-13 15:42:00,83.1,56.3,28.94,West,262,3.6,3.6,40,0.00,,BKN,0.00,VWS V13.01,2013-08-13 19:42:00,
2013-08-13 15:47:00,82.8,56.0,28.94,West,262,3.6,3.6,40,0.00,,BKN,0.00,VWS V13.01,2013-08-13 19:47:00,
2013-08-13 15:52:00,82.9,56.2,28.94,West,262,3.6,3.6,40,0.00,,BKN,0.00,VWS V13.01,2013-08-13 19:52:00,
2013-08-13 15:57:00,83.5,56.6,28.94,West,262,3.6,3.6,40,0.00,,BKN,0.00,VWS V13.01,2013-08-13 19:57:00,
2013-08-13 16:02:00,83.5,56.6,28.94,West,262,3.6,3.6,40,0.00,,BKN,0.00,VWS V13.01,2013-08-13 20:02:00,
2013-08-13 16:07:00,83.1,56.3,28.94,West,262,3.6,3.6,40,0.00,,BKN,0.00,VWS V13.01,2013-08-13 20:07:00,
2013-08-13 16:12:00,83.1,56.3,28.94,West,262,3.6,3.6,40,0.00,,BKN,0.00,VWS V13.01,2013-08-13 20:12:00,
2013-08-13 16:17:00,83.1,56.3,28.94,West,262,3.6,3.6,40,0.00,,BKN,0.00,VWS V13.01,2013-08-13 20:17:00,
2013-08-13 16:22:00,82.9,56.2,28.94,West,262,3.6,3.6,40,0.00,,BKN,0.00,VWS V13.01,2013-08-13 20:22:00,
2013-08-13 16:27:00,82.9,56.2,28.94,West,262,3.6,3.6,40,0.00,,BKN,0.00,VWS V13.01,2013-08-13 20:27:00,
2013-08-13 16:32:00,83.3,56.5,28.94,West,262,3.6,3.6,40,0.00,,BKN,0.00,VWS V13.01,2013-08-13 20:32:00,
2013-08-13 16:37:00,83.5,56.6,28.94,West,262,3.6,3.6,40,0.00,,BKN,0.00,VWS V13.01,2013-08-13 20:37:00,
2013-08-13 16:42:00,83.5,56.6,28.94,West,262,3.6,3.6,40,0.00,,BKN,0.00,VWS V13.01,2013-08-13 20:42:00,
2013-08-13 16:47:00,83.1,56.3,28.94,West,262,3.6,3.6,40,0.00,,BKN,0.00,VWS V13.01,2013-08-13 20:47:00,
2013-08-13 16:52:00,82.8,56.0,28.94,West,262,3.6,3.6,40,0.00,,BKN,0.00,VWS V13.01,2013-08-13 20:52:00,
2013-08-13 16:57:00,82.6,55.8,28.94,West,262,3.6,3.6,40,0.00,,BKN,0.00,VWS V13.01,2013-08-13 20:57:00,
2013-08-13 17:02:00,82.6,55.8,28.94,West,262,3.6,3.6,40,0.00,,BKN,0.00,VWS V13.01,2013-08-13 21:02:00,
2013-08-13 17:07:00,82.8,56.0,28.94,West,262,3.6,3.6,40,0.00,,BKN,0.00,VWS V13.01,2013-08-13 21:07:00,
2013-08-13 17:12:00,82.8,56.0,28.94,West,262,3.6,3.6,40,0.00,,BKN,0.00,VWS V13.01,2013-08-13 21:12:00,
2013-08-13 17:17:00,82.4,55.7,28.94,West,262,3.6,3.6,40,0.00,,BKN,0.00,VWS V13.01,2013-08-13 21:17:00,
2013-08-13 17:22:00,82.0,55.4,28.94,West,262,3.6,3.6,40,0.00,,BKN,0.00,VWS V13.01,2013-08-13 21:22:00,
2013-08-13 17:27:00,81.9,55.2,28.94,West,262,3.6,3.6,40,0.00,,BKN,0.00,VWS V13.01,2013-08-13 21:27:00,
2013-08-13 17:32:00,81.7,55.7,28.94,West,262,3.6,3.6,41,0.00,,BKN,0.00,VWS V13.01,2013-08-13 21:32:00,
2013-08-13 17:37:00,81.5,55.5,28.94,West,262,3.6,3.6,41,0.00,,BKN,0.00,VWS V13.01,2013-08-13 21:37:00,
2013-08-13 17:42:00,81.5,55.5,28.94,West,262,3.6,3.6,41,0.00,,BKN,0.00,VWS V13.01,2013-08-13 21:42:00,
2013-08-13 17:47:00,81.1,55.2,28.94,West,262,3.6,3.6,41,0.00,,BKN,0.00,VWS V13.01,2013-08-13 21:47:00,
2013-08-13 17:52:00,80.6,54.8,28.94,West,262,3.6,3.6,41,0.00,,BKN,0.00,VWS V13.01,2013-08-13 21:52:00,
2013-08-13 17:57:00,79.7,53.9,28.94,West,262,3.6,3.6,41,0.00,,BKN,0.00,VWS V13.01,2013-08-13 21:57:00,
2013-08-13 18:01:00,77.7,52.2,28.94,West,262,3.6,3.6,41,0.00,,BKN,0.00,VWS V13.01,2013-08-13 22:01:00,
2013-08-13 18:06:00,75.4,61.9,28.94,West,262,3.6,3.6,63,0.00,,BKN,0.00,VWS V13.01,2013-08-13 22:06:00,
2013-08-13 18:11:00,73.8,62.1,28.97,West,262,3.6,3.6,67,0.00,,BKN,0.00,VWS V13.01,2013-08-13 22:11:00,
2013-08-13 18:16:00,72.7,61.9,28.97,West,262,3.6,3.6,69,0.00,,BKN,0.00,VWS V13.01,2013-08-13 22:16:00,
2013-08-13 18:21:00,72.1,61.8,28.97,West,262,3.6,3.6,70,0.00,,BKN,0.00,VWS V13.01,2013-08-13 22:21:00,
2013-08-13 18:26:00,71.8,62.3,28.94,West,262,3.6,3.6,72,0.00,,BKN,0.00,VWS V13.01,2013-08-13 22:26:00,
2013-08-13 18:31:00,71.6,62.5,28.94,West,262,3.6,3.6,73,0.00,,BKN,0.00,VWS V13.01,2013-08-13 22:31:00,
2013-08-13 18:36:00,71.6,62.5,28.94,West,262,3.6,3.6,73,0.00,,BKN,0.00,VWS V13.01,2013-08-13 22:36:00,
2013-08-13 18:41:00,71.6,62.9,28.97,West,262,3.6,3.6,74,0.00,,BKN,0.00,VWS V13.01,2013-08-13 22:41:00,
2013-08-13 18:46:00,71.8,63.4,28.97,West,262,3.6,3.6,75,0.00,,BKN,0.00,VWS V13.01,2013-08-13 22:46:00,
2013-08-13 18:51:00,71.6,63.6,28.97,West,262,3.6,3.6,76,0.00,,BKN,0.00,VWS V13.01,2013-08-13 22:51:00,
2013-08-13 18:56:00,71.6,64.0,28.97,West,262,3.6,3.6,77,0.00,,BKN,0.00,VWS V13.01,2013-08-13 22:56:00,
2013-08-13 19:01:00,71.4,63.8,28.97,West,262,3.6,3.6,77,0.00,,BKN,0.00,VWS V13.01,2013-08-13 23:01:00,
2013-08-13 19:06:00,71.4,63.8,28.97,West,262,3.6,3.6,77,0.00,,BKN,0.00,VWS V13.01,2013-08-13 23:06:00,
2013-08-13 19:11:00,71.4,63.8,28.97,West,262,3.6,3.6,77,0.00,,BKN,0.00,VWS V13.01,2013-08-13 23:11:00,
2013-08-13 19:16:00,71.4,64.2,28.97,West,262,3.6,3.6,78,0.00,,BKN,0.00,VWS V13.01,2013-08-13 23:16:00,
2013-08-13 19:21:00,71.2,64.0,28.97,West,262,3.6,3.6,78,0.00,,BKN,0.00,VWS V13.01,2013-08-13 23:21:00,
2013-08-13 19:26:00,71.2,64.0,28.97,West,262,3.6,3.6,78,0.00,,BKN,0.00,VWS V13.01,2013-08-13 23:26:00,
2013-08-13 19:31:00,71.2,64.4,28.97,West,262,3.6,3.6,79,0.00,,BKN,0.00,VWS V13.01,2013-08-13 23:31:00,
2013-08-13 19:36:00,70.9,64.4,28.97,West,262,3.6,3.6,80,0.00,,BKN,0.00,VWS V13.01,2013-08-13 23:36:00,
2013-08-13 19:41:00,71.1,64.6,28.97,West,262,3.6,3.6,80,0.00,,BKN,0.00,VWS V13.01,2013-08-13 23:41:00,
2013-08-13 19:46:00,71.2,64.8,28.97,West,262,3.6,3.6,80,0.00,,BKN,0.00,VWS V13.01,2013-08-13 23:46:00,
2013-08-13 19:51:00,71.2,64.8,28.97,West,262,3.6,3.6,80,0.00,,BKN,0.00,VWS V13.01,2013-08-13 23:51:00,
2013-08-13 19:56:00,71.2,64.8,28.97,West,262,3.6,3.6,80,0.00,,BKN,0.00,VWS V13.01,2013-08-13 23:56:00,
2013-08-13 20:01:00,71.1,64.6,28.97,West,262,3.6,3.6,80,0.00,,BKN,0.00,VWS V13.01,2013-08-14 00:01:00,
2013-08-13 20:06:00,71.1,64.6,28.97,West,262,3.6,3.6,80,0.00,,BKN,0.00,VWS V13.01,2013-08-14 00:06:00,
2013-08-13 20:11:00,70.9,64.4,28.97,WSW,258,0.0,3.1,80,0.00,,BKN,0.00,VWS V13.01,2013-08-14 00:11:00,
2013-08-13 20:16:00,70.9,64.4,28.97,SSW,204,0.0,0.0,80,0.00,,BKN,0.00,VWS V13.01,2013-08-14 00:16:00,
2013-08-13 20:21:00,70.7,63.9,28.97,WSW,248,2.7,3.6,79,0.00,,BKN,0.00,VWS V13.01,2013-08-14 00:21:00,
2013-08-13 20:26:00,70.7,64.2,28.97,WSW,248,0.0,2.7,80,0.00,,BKN,0.00,VWS V13.01,2013-08-14 00:26:00,
2013-08-13 20:31:00,70.5,64.1,28.97,WSW,248,0.0,0.0,80,0.00,,BKN,0.00,VWS V13.01,2013-08-14 00:31:00,
2013-08-13 20:36:00,70.3,63.5,28.97,WSW,251,0.0,0.0,79,0.00,,BKN,0.00,VWS V13.01,2013-08-14 00:36:00,
2013-08-13 20:41:00,70.3,63.5,28.97,WSW,251,0.0,3.1,79,0.00,,BKN,0.00,VWS V13.01,2013-08-14 00:41:00,
2013-08-13 20:46:00,70.3,63.5,28.97,WSW,252,0.0,0.0,79,0.00,,BKN,0.00,VWS V13.01,2013-08-14 00:46:00,
2013-08-13 20:51:00,70.5,63.3,28.97,West,263,0.0,3.6,78,0.00,,BKN,0.00,VWS V13.01,2013-08-14 00:51:00,
2013-08-13 20:56:00,70.5,63.0,28.97,West,263,0.0,0.0,77,0.00,,BKN,0.00,VWS V13.01,2013-08-14 00:56:00,
2013-08-13 21:01:00,70.7,62.8,28.97,West,262,0.0,0.0,76,0.00,,BKN,0.00,VWS V13.01,2013-08-14 01:01:00,
2013-08-13 21:06:00,70.9,63.0,28.97,West,262,3.1,3.6,76,0.00,,BKN,0.00,VWS V13.01,2013-08-14 01:06:00,
2013-08-13 21:11:00,71.1,63.1,29.00,West,262,0.0,0.0,76,0.00,,BKN,0.00,VWS V13.01,2013-08-14 01:11:00,
2013-08-13 21:16:00,70.9,63.0,29.00,West,262,0.0,0.0,76,0.00,,BKN,0.00,VWS V13.01,2013-08-14 01:16:00,
2013-08-13 21:21:00,70.7,62.8,29.00,West,262,0.0,0.0,76,0.00,,BKN,0.00,VWS V13.01,2013-08-14 01:21:00,
2013-08-13 21:26:00,70.7,62.8,29.00,West,262,0.0,0.0,76,0.00,,BKN,0.00,VWS V13.01,2013-08-14 01:26:00,
2013-08-13 21:31:00,70.5,62.6,29.00,West,262,0.0,0.0,76,0.00,,BKN,0.00,VWS V13.01,2013-08-14 01:31:00,
2013-08-13 21:36:00,70.5,62.6,29.00,West,262,0.0,0.0,76,0.00,,BKN,0.00,VWS V13.01,2013-08-14 01:36:00,
2013-08-13 21:41:00,70.3,62.4,29.00,NW,322,4.0,4.0,76,0.00,,BKN,0.00,VWS V13.01,2013-08-14 01:41:00,
2013-08-13 21:46:00,70.5,63.0,29.00,WNW,297,0.0,0.0,77,0.00,,BKN,0.00,VWS V13.01,2013-08-14 01:46:00,
2013-08-13 21:51:00,70.7,62.8,29.00,WNW,296,0.0,0.0,76,0.00,,BKN,0.00,VWS V13.01,2013-08-14 01:51:00,
2013-08-13 21:56:00,70.7,62.8,29.00,WNW,296,0.0,0.0,76,0.00,,BKN,0.00,VWS V13.01,2013-08-14 01:56:00,
2013-08-13 22:01:00,70.5,62.6,29.00,WNW,296,0.0,0.0,76,0.00,,BKN,0.00,VWS V13.01,2013-08-14 02:01:00,
2013-08-13 22:06:00,70.5,62.2,29.00,NW,312,0.0,0.0,75,0.00,,BKN,0.00,VWS V13.01,2013-08-14 02:06:00,
2013-08-13 22:11:00,70.3,62.0,29.00,NNW,340,4.0,4.5,75,0.00,,BKN,0.00,VWS V13.01,2013-08-14 02:11:00,
2013-08-13 22:16:00,70.3,62.0,29.00,NW,310,2.7,3.1,75,0.00,,BKN,0.00,VWS V13.01,2013-08-14 02:16:00,
2013-08-13 22:21:00,70.3,62.0,29.00,NW,316,0.0,2.7,75,0.00,,BKN,0.00,VWS V13.01,2013-08-14 02:21:00,
2013-08-13 22:26:00,70.3,61.7,29.00,NW,315,3.1,6.7,74,0.00,,BKN,0.00,VWS V13.01,2013-08-14 02:26:00,
2013-08-13 22:31:00,70.3,61.3,29.00,NNW,336,3.1,3.6,73,0.00,,BKN,0.00,VWS V13.01,2013-08-14 02:31:00,
2013-08-13 22:36:00,70.5,60.7,29.00,NW,317,3.1,3.1,71,0.00,,BKN,0.00,VWS V13.01,2013-08-14 02:36:00,
2013-08-13 22:41:00,70.7,60.8,29.03,NW,314,0.0,0.0,71,0.00,,BKN,0.00,VWS V13.01,2013-08-14 02:41:00,
2013-08-13 22:46:00,70.7,60.5,29.03,NW,312,0.0,2.7,70,0.00,,BKN,0.00,VWS V13.01,2013-08-14 02:46:00,
2013-08-13 22:51:00,70.5,58.2,29.03,NNW,336,4.5,4.9,65,0.00,,BKN,0.00,VWS V13.01,2013-08-14 02:51:00,
2013-08-13 22:56:00,70.7,56.6,29.00,West,266,3.1,5.4,61,0.00,,BKN,0.00,VWS V13.01,2013-08-14 02:56:00,
2013-08-13 23:01:00,70.7,55.2,29.00,WNW,283,5.8,6.7,58,0.00,,BKN,0.00,VWS V13.01,2013-08-14 03:01:00,
2013-08-13 23:06:00,70.7,54.2,29.00,North,351,3.6,5.8,56,0.00,,BKN,0.00,VWS V13.01,2013-08-14 03:06:00,
2013-08-13 23:11:00,70.7,54.2,29.03,NW,325,4.0,6.3,56,0.00,,BKN,0.00,VWS V13.01,2013-08-14 03:11:00,
2013-08-13 23:16:00,70.5,53.6,29.03,NE,43,0.0,4.5,55,0.00,,BKN,0.00,VWS V13.01,2013-08-14 03:16:00,
2013-08-13 23:21:00,70.3,52.4,29.03,NW,315,4.5,4.5,53,0.00,,BKN,0.00,VWS V13.01,2013-08-14 03:21:00,
2013-08-13 23:26:00,70.3,52.4,29.03,NW,325,4.5,4.9,53,0.00,,BKN,0.00,VWS V13.01,2013-08-14 03:26:00,
2013-08-13 23:31:00,70.3,51.9,29.03,NW,315,4.9,4.9,52,0.00,,BKN,0.00,VWS V13.01,2013-08-14 03:31:00,
2013-08-13 23:36:00,70.3,51.4,29.03,NW,321,3.1,3.1,51,0.00,,BKN,0.00,VWS V13.01,2013-08-14 03:36:00,
2013-08-13 23:41:00,70.2,51.2,29.03,NW,311,5.8,5.8,51,0.00,,BKN,0.00,VWS V13.01,2013-08-14 03:41:00,
2013-08-13 23:46:00,70.2,51.2,29.03,NW,311,0.0,0.0,51,0.00,,BKN,0.00,VWS V13.01,2013-08-14 03:46:00,
2013-08-13 23:51:00,69.8,50.9,29.03,WNW,290,2.7,3.6,51,0.00,,BKN,0.00,VWS V13.01,2013-08-14 03:51:00,
2013-08-13 23:56:00,69.6,50.7,29.03,North,5,2.7,2.7,51,0.00,,BKN,0.00,VWS V13.01,2013-08-14 03:56:00,